{"data":{"norad_id":46073,"intl_designator":"2020-055AY","name":"STARLINK-1542","alt_names":[],"object_type":"PAYLOAD","status":"ACTIVE","operator":null,"country":"US","launch_date":"2020-08-07","launch_site_code":"AFETR","launch_vehicle":null,"mission":null,"orbit_class":"UNKNOWN","rcs_meters":null,"size_class":null,"mass_kg":null,"dimensions":null,"purposes":["comms"],"wikipedia_slug":null,"has_3d_model":false,"image_url":null,"decayed_at":null,"tle_current":{"epoch":"2026-05-25T03:24:00.410688Z","epoch_age_seconds":69627,"freshness":"FRESH","line1":"1 46073U 20055AY  26145.14167142 -.00000620  00000+0 -82041-5 0  9995","line2":"2 46073  53.1619 109.1527 0001240  93.7864 266.3279 15.31699358320893","mean_motion":15.31699358,"eccentricity":0.000124,"inclination_deg":53.1619,"raan_deg":109.1527,"arg_perigee_deg":93.7864,"mean_anomaly_deg":266.3279,"bstar":-8.2041e-6,"rev_number":32089,"period_min":94.013227365993,"perigee_km":469.89264801019,"apogee_km":471.59116997962,"semimajor_km":6848.8789089949,"source":"CELESTRAK","updated_at":"2026-05-25T13:38:16.463880Z"}}}